This is the latest recevied weather packets stored in our database for station/object K0VSC-1. If no packets are shown the sender has not sent any weather packets the latest 1 day(s).
| Time | Temp. | Humidity | Pressure | Rain* | Wind** | Luminosity | Snow |
|---|---|---|---|---|---|---|---|
| 1778034484 | 2.78° C | 55% | 1014.2 hPa | 0 mm | 1.79 m/s, 331° | 0 W/m² | - |
| 1778034184 | 2.78° C | 55% | 1014.1 hPa | 0 mm | 1.79 m/s, 318° | 0 W/m² | - |
| 1778033884 | 2.78° C | 55% | 1013.9 hPa | 0 mm | 1.79 m/s, 324° | 0 W/m² | - |
| 1778033584 | 2.78° C | 54% | 1014 hPa | 0 mm | 1.79 m/s, 340° | 0 W/m² | - |
| 1778033284 | 2.78° C | 54% | 1013.9 hPa | 0 mm | 1.79 m/s, 329° | 0 W/m² | - |
| 1778032984 | 3.33° C | 54% | 1013.8 hPa | 0 mm | 1.34 m/s, 326° | 0 W/m² | - |
| 1778032684 | 3.33° C | 54% | 1013.8 hPa | 0 mm | 1.79 m/s, 333° | 0 W/m² | - |
| 1778032384 | 3.33° C | 53% | 1013.7 hPa | 0 mm | 1.79 m/s, 334° | 0 W/m² | - |
| 1778032084 | 3.33° C | 54% | 1013.6 hPa | 0 mm | 1.79 m/s, 310° | 0 W/m² | - |
| 1778031785 | 3.33° C | 54% | 1013.6 hPa | 0 mm | 1.79 m/s, 334° | 0 W/m² | - |
| 1778031484 | 3.33° C | 53% | 1013.5 hPa | 0 mm | 1.79 m/s, 341° | 0 W/m² | - |
| 1778031277 | 3.89° C | 53% | 1013.5 hPa | 0 mm | 1.79 m/s, 338° | 0 W/m² | - |
| 1778031185 | 3.89° C | 53% | 1013.5 hPa | 0 mm | 1.79 m/s, 338° | 0 W/m² | - |
| 1778030884 | 3.89° C | 53% | 1013.3 hPa | 0 mm | 1.79 m/s, 325° | 5 W/m² | - |
| 1778030585 | 3.89° C | 53% | 1013.3 hPa | 0 mm | 1.79 m/s, 322° | 7 W/m² | - |
| 1778030285 | 3.89° C | 52% | 1013.2 hPa | 0 mm | 1.79 m/s, 332° | 7 W/m² | - |
| 1778029985 | 3.89° C | 52% | 1013.1 hPa | 0 mm | 2.24 m/s, 315° | 11 W/m² | - |
| 1778029685 | 3.89° C | 51% | 1013.1 hPa | 0 mm | 3.13 m/s, 293° | 11 W/m² | - |
| 1778029385 | 4.44° C | 50% | 1013.1 hPa | 0 mm | 3.13 m/s, 336° | 14 W/m² | - |
| 1778029085 | 4.44° C | 50% | 1013 hPa | 0 mm | 2.24 m/s, 314° | 23 W/m² | - |
| 1778028785 | 4.44° C | 52% | 1013 hPa | 0 mm | 2.68 m/s, 327° | 30 W/m² | - |
| 1778028485 | 4.44° C | 51% | 1013 hPa | 0 mm | 3.58 m/s, 327° | 32 W/m² | - |
| 1778028185 | 4.44° C | 50% | 1012.9 hPa | 0 mm | 3.13 m/s, 336° | 39 W/m² | - |
| 1778027885 | 4.44° C | 51% | 1012.9 hPa | 0 mm | 2.68 m/s, 344° | 39 W/m² | - |
| 1778027585 | 4.44° C | 51% | 1013 hPa | 0 mm | 2.68 m/s, 312° | 42 W/m² | - |
* Rain latest hour (hover to see other rain measurements)
** Current wind speed in m/s (hover to see current wind gust speed)